Regional Weather Roundup
Issued by NWS

Home | Current Version | Previous Version | Graphics & Text | Print | Product List | Glossary On
Versions: 1 2 3 4 5 6 7 8 9 10 11 12 13 14 15 16 17 18 19 20 21 22 23 24 25 26 27 28 29 30 31 32 33 34 35 36 37 38 39 40 41 42 43 44 45 46 47 48 49 50
000
ASUS43 KOAX 221610
RWRNE

WEATHER ROUNDUP FOR NEBRASKA
NATIONAL WEATHER SERVICE OMAHA NE
1100 AM CDT TUE JUL 22 2014

NOTES: SATELLITE DATA IS BEING USED TO AUGMENT CLOUD COVER ABOVE
       12000 FEET.
       "FAIR" INDICATES FEW OR NO CLOUDS BELOW 12,000 FEET WITH NO
       SIGNIFICANT WEATHER AND/OR OBSTRUCTIONS TO VISIBILITY.

  * THESE STATIONS DO NOT REPORT WEATHER SUCH AS RAIN...SNOW OR FOG.

NEZ001>004-019>022-054>056-221700-
NEBRASKA PANHANDLE

CITY           SKY/WX    TMP DP  RH WIND       PRES   REMARKS
SCOTTSBLUFF    SUNNY     82  59  45 SE9       30.25R
ALLIANCE       SUNNY     86  50  28 SE16      30.23R
CHADRON        SUNNY     79  60  52 VRB7      30.22R
KIMBALL        SUNNY     77  57  50 E9        30.30R
SIDNEY         SUNNY     83  55  38 VRB6      30.28R
$$

NEZ057>060-069>072-079>082-221700-
SOUTHWEST NEBRASKA

CITY           SKY/WX    TMP DP  RH WIND       PRES   REMARKS
NORTH PLATTE   SUNNY     84  59  42 E14       30.17R
IMPERIAL       SUNNY     84  58  40 E8        30.21R
LEXINGTON      SUNNY     84  62  47 E9        30.13R
MCCOOK         SUNNY     86  61  42 E20G28    30.11R
OGALLALA       SUNNY     80  59  47 NE9       30.21S
$$

NEZ005>010-023>029-035>040-094-221700-
NORTH CENTRAL NEBRASKA

CITY           SKY/WX    TMP DP  RH WIND       PRES   REMARKS
VALENTINE      MOSUNNY   80  64  58 NE13      30.18R
AINSWORTH      SUNNY     74  62  66 E6        30.16R
BROKEN BOW     SUNNY     84  61  45 NE12G21   30.16R
O`NEILL        MOSUNNY   77  61  56 NE7       30.13F
THEDFORD       SUNNY     83  59  42 E10       30.19S
$$

NEZ041-046>049-061>064-073>077-083>087-221700-
SOUTH CENTRAL NEBRASKA

CITY           SKY/WX    TMP DP  RH WIND       PRES   REMARKS
GRAND ISLAND   PTSUNNY   82  64  54 E8        30.08R
AURORA         MOSUNNY   83  70  64 NE8       30.06R
HASTINGS       MOSUNNY   84  63  49 E9        30.07S
HEBRON         MOSUNNY   89  68  50 W7        30.04R HX  93
HOLDREGE       SUNNY     83  63  51 E13       30.09S
KEARNEY *      MOSUNNY   84  63  48 SE12      30.10R
YORK           MOSUNNY   82  73  74 E7        30.05S
$$

NEZ011>018-030>034-042>045-221700-
NORTHEAST NEBRASKA

CITY           SKY/WX    TMP DP  RH WIND       PRES   REMARKS
NORFOLK        PTSUNNY   83  64  52 NW22      30.09R
ALBION         CLOUDY    77  62  59 N14G21    30.12R
BLAIR          MOSUNNY   86  73  64 N7        30.01R HX  93
COLUMBUS *     PTSUNNY   84  66  54 CALM      30.05R
FREMONT        MOSUNNY   85  73  65 E3        30.01R HX  91
TEKAMAH        PTSUNNY   89  69  51 N9        29.99R HX  93
WAYNE          MOSUNNY   80  68  67 NW12G21   30.08R
$$

NEZ050>053-065>068-078-088>093-221700-
SOUTHEAST NEBRASKA

CITY           SKY/WX    TMP DP  RH WIND       PRES   REMARKS
LINCOLN        SUNNY     90  74  59 E7        30.01R HX  99
OMAHA EPPLEY   MOSUNNY   88  74  63 E10       29.96F HX  96
BEATRICE       SUNNY     83  71  65 W3        30.01S
FALLS CITY     SUNNY     90  73  57 W7        30.00R HX  98
NEBRASKA CITY  SUNNY     86  71  61 W3        30.00R HX  92
PLATTSMOUTH    SUNNY     88  73  61 NE6       29.99S HX  96
$$

NEZ044-045-051>053-067-221700-
OMAHA AREA

CITY           SKY/WX    TMP DP  RH WIND       PRES   REMARKS
OMAHA EPPLEY   MOSUNNY   88  74  63 E10       29.96F HX  96
BLAIR          MOSUNNY   86  73  64 N7        30.01R HX  93
FREMONT        MOSUNNY   85  73  65 E3        30.01R HX  91
MILLARD        MOSUNNY   89  75  63 E5        29.98R HX  99
OFFUTT AFB     PTSUNNY   88  79  73 E8        29.97S HX 103
PLATTSMOUTH    SUNNY     88  73  61 NE6       29.99S HX  96
WAHOO          FAIR      86  73  66 NE5       30.00R HX  93
$$



USA.gov is the U.S. government's official web portal to all federal, state and local government web resources and services.